Temp
5 5 5 5 5 5 5 5 5 5 6 6 6 6 6 6 6 6 6 6 6 7 6 6 7 7 7 7 7 7 8 8 8
5 5 5 5 5 5 5 5 5 5 5 6 6 6 6 6 6 6 6 6 6 6 6 6 6 7 7 7 7 7 8 8 8
5 5 5 5 5 5 5 5 5 5 5 5 5 5 6 6 6 6 6 6 6 6 6 6 6 5 6 7 6 6 7 8 7
5 5 6 5 5 5 5 5 5 5 5 5 5 5 5 5 5 6 6 6 5 6 5 6 6 6 5 6 6 6 6 7 7
5 5 5 6 5 5 5 6 5 5 5 5 5 5 5 5 5 5 6 6 5 5 5 5 6 6 5 5 5 5 6 6 7
5 5 5 5 6 6 5 5 5 5 6 5 5 5 5 5 5 6 6 6 6 5 6 5 5 6 6 6 5 5 5 6 6
5 5 5 5 6 5 6 6 5 5 6 5 5 5 6 5 5 5 5 6 6 6 5 5 5 5 5 6 6 5 5 5 5
4 5 5 5 5 5 6 6 6 6 6 6 6 5 5 5 6 6 5 5 5 5 5 5 5 5 5 5 5 5 5 5 5
4 4 5 5 5 5 5 5 5 5 6 6 6 6 6 6 5 5 5 5 5 5 5 5 5 5 5 5 5 5 5 5 5
5 5 4 4 5 5 5 5 5 5 5 5 5 6 6 5 6 6 5 5 5 5 5 5 4 4 5 5 5 5 5 5 5
5 5 4 4 4 4 4 5 5 5 5 5 6 5 5 5 6 6 5 5 5 5 5 5 5 4 4 5 5 5 4 4 4
3 4 4 5 5 5 5 5 4 4 5 5 5 5 6 5 5 6 6 5 5 5 5 5 5 5 4 4 4 5 5 4 4
2 2 2 3 3 4 4 4 5 5 5 5 5 5 5 5 5 5 5 5 5 5 6 6 5 5 5 4 3 4 4 4 4
1 1 2 2 2 3 3 3 4 4 4 5 4 4 5 5 5 5 5 6 5 5 5 5 5 5 5 5 4 3 4 4 4
1 1 2 2 2 2 3 3 4 4 4 5 4 4 4 4 4 4 4 5 5 5 5 5 5 5 5 5 5 4 3 3 3
-0 0 0 1 1 1 2 2 3 3 4 4 4 4 4 4 4 4 4 4 4 4 5 5 5 5 5 5 5 5 4 3 3
-2 -1 -1 -1 -0 0 1 1 1 2 2 3 3 3 3 3 3 4 4 3 3 3 3 4 4 4 5 4 4 5 4 4 3
-2 -2 -2 -2 -2 -2 -2 -1 -0 -0 0 1 1 2 2 3 3 3 3 3 4 3 2 2 2 3 4 4 4 3 4 4 3
-3 -3 -3 -3 -3 -3 -2 -2 -2 -2 -2 -2 -1 -1 0 1 2 1 0 1 1 2 3 3 2 1 1 2 3 3 3 4 3
-5 -5 -5 -5 -4 -4 -4 -5 -5 -5 -5 -5 -5 -5 -4 -3 -1 1 0 -1 -1 -0 -0 0 1 1 0 -0 1 2 3 3 3
Height
3143 3143 3145 3145 3145 3147 3149 3150 3151 3152 3154 3156 3157 3157 3157 3158 3158 3157 3158 3159 3159 3160 3162 3163 3164 3166 3167 3168 3169 3170 3171 3173 3174
3140 3140 3142 3142 3143 3144 3145 3147 3148 3149 3151 3153 3155 3155 3156 3156 3156 3156 3156 3158 3159 3160 3160 3161 3163 3164 3166 3167 3168 3170 3171 3172 3174
3135 3136 3137 3138 3139 3140 3141 3142 3144 3146 3148 3150 3151 3153 3154 3154 3153 3154 3155 3157 3158 3158 3159 3160 3161 3163 3165 3166 3167 3169 3170 3172 3173
3131 3132 3132 3133 3134 3135 3136 3137 3139 3141 3143 3145 3146 3149 3150 3151 3151 3152 3153 3154 3155 3156 3156 3158 3159 3160 3162 3164 3166 3167 3168 3170 3172
3125 3126 3127 3128 3129 3130 3131 3132 3133 3135 3138 3140 3142 3144 3145 3146 3147 3148 3150 3151 3152 3153 3154 3155 3156 3158 3160 3162 3164 3166 3167 3168 3170
3120 3120 3121 3123 3124 3124 3125 3126 3127 3129 3132 3134 3136 3138 3140 3142 3142 3144 3146 3147 3149 3150 3152 3153 3153 3154 3157 3160 3162 3164 3166 3167 3168
3114 3115 3115 3115 3117 3118 3118 3119 3121 3122 3125 3127 3129 3131 3133 3135 3137 3139 3140 3142 3143 3146 3148 3150 3151 3152 3153 3155 3159 3161 3163 3165 3166
3106 3108 3109 3109 3111 3111 3113 3114 3114 3115 3117 3120 3122 3124 3126 3128 3129 3131 3134 3137 3138 3140 3142 3145 3147 3148 3150 3151 3154 3156 3158 3160 3163
3099 3100 3101 3103 3103 3105 3105 3106 3108 3109 3110 3112 3113 3116 3118 3120 3123 3125 3127 3130 3131 3134 3137 3139 3141 3143 3145 3147 3149 3151 3153 3156 3159
3092 3092 3093 3094 3096 3097 3098 3100 3100 3101 3102 3105 3107 3107 3110 3112 3114 3116 3120 3121 3123 3125 3129 3132 3134 3137 3139 3141 3144 3145 3148 3150 3153
3086 3087 3088 3089 3089 3090 3091 3091 3091 3093 3094 3097 3098 3099 3102 3104 3105 3107 3110 3113 3115 3118 3120 3123 3126 3129 3132 3134 3137 3139 3142 3145 3147
3081 3081 3082 3082 3081 3081 3082 3084 3085 3086 3087 3087 3088 3090 3092 3095 3097 3099 3102 3104 3105 3108 3110 3113 3116 3120 3123 3126 3129 3131 3135 3137 3140
3072 3072 3074 3075 3075 3075 3075 3076 3076 3076 3077 3077 3079 3081 3082 3084 3086 3089 3091 3093 3095 3098 3100 3103 3106 3109 3114 3118 3121 3123 3126 3130 3133
3066 3066 3066 3066 3066 3066 3067 3066 3067 3066 3067 3068 3070 3069 3071 3073 3075 3077 3079 3081 3084 3086 3089 3092 3095 3099 3102 3106 3110 3114 3118 3121 3124
3057 3056 3056 3056 3057 3057 3057 3057 3057 3057 3058 3059 3059 3060 3061 3062 3063 3065 3067 3069 3072 3074 3076 3079 3083 3086 3090 3094 3098 3104 3108 3114 3116
3046 3046 3046 3046 3046 3045 3044 3044 3045 3045 3046 3048 3050 3051 3052 3052 3052 3053 3054 3056 3058 3060 3063 3067 3070 3073 3076 3081 3085 3090 3097 3101 3107
3037 3036 3036 3035 3035 3034 3034 3034 3035 3035 3034 3035 3037 3038 3040 3039 3040 3040 3042 3044 3046 3049 3050 3052 3056 3059 3063 3066 3070 3075 3081 3087 3094
3026 3026 3026 3025 3025 3025 3025 3024 3025 3025 3024 3023 3025 3026 3026 3027 3029 3029 3029 3029 3030 3031 3035 3038 3040 3044 3048 3052 3055 3060 3065 3071 3079
3015 3014 3014 3014 3014 3013 3012 3011 3009 3010 3011 3008 3007 3008 3009 3010 3014 3019 3019 3017 3018 3019 3020 3021 3025 3027 3030 3035 3040 3044 3048 3054 3059
3004 3003 3001 3000 3000 3000 2999 2998 2996 2993 2994 2995 2995 2994 2995 2994 2993 2994 3003 3007 3006 3006 3007 3007 3007 3008 3012 3016 3021 3026 3030 3035 3043
Wind_Speed
20 20 19 17 16 16 15 14 13 11 10 9 10 11 10 8 6 7 4 1 2 1 2 1 6 11 11 8 8 8 10 10 11
24 22 22 21 20 20 20 19 18 16 15 13 13 13 12 12 10 10 10 4 2 3 2 3 2 6 11 11 10 10 11 10 11
25 26 26 25 25 24 24 23 22 22 19 17 16 16 13 14 14 14 12 11 6 4 4 5 7 5 7 11 11 10 11 12 11
26 27 27 27 28 27 27 26 26 24 23 21 20 19 18 18 18 17 16 13 9 8 7 8 8 9 9 9 10 12 13 12 14
29 30 29 29 30 29 29 29 28 28 27 25 23 23 21 21 21 22 19 18 15 13 11 9 11 10 12 13 11 11 12 15 15
31 31 30 31 31 32 31 30 30 30 30 30 29 27 27 26 26 25 23 23 21 18 17 14 12 12 12 16 16 14 13 13 16
30 30 30 31 31 32 31 31 31 33 32 32 32 32 31 30 31 30 28 27 26 24 21 19 17 16 14 15 19 19 19 17 15
30 29 29 30 31 30 30 31 32 33 33 34 35 35 35 34 34 33 33 32 30 28 27 24 22 21 20 19 18 22 21 20 16
30 30 31 30 30 29 29 29 30 31 32 33 34 36 37 37 37 36 36 35 35 35 33 30 27 26 23 22 22 22 25 23 24
33 33 32 31 30 30 30 30 30 31 31 32 34 34 35 36 37 38 39 38 38 38 37 36 34 31 29 28 25 26 25 26 26
36 36 34 33 32 32 32 33 34 34 34 34 34 34 35 36 37 38 39 41 40 40 41 40 40 37 35 34 31 29 29 29 30
34 35 35 35 35 36 36 36 36 36 36 37 36 36 36 37 37 37 40 41 41 42 44 44 44 43 42 39 38 36 32 32 30
31 31 32 33 35 37 38 39 40 41 40 38 38 38 39 39 40 40 40 42 43 44 44 45 47 47 46 45 43 42 39 36 36
31 32 34 34 35 36 37 39 40 41 42 43 42 41 41 41 42 42 43 45 45 46 47 47 48 49 51 50 49 48 47 41 40
31 33 35 35 35 36 38 40 41 43 45 46 45 43 43 43 44 45 46 46 47 49 50 50 50 51 52 54 54 53 52 47 45
32 33 35 35 36 37 38 38 39 41 44 44 44 45 47 47 46 45 46 47 48 50 52 53 54 54 55 56 57 59 57 56 52
32 33 34 35 35 36 37 38 38 40 43 44 46 46 46 47 47 49 50 49 48 49 51 54 56 57 58 58 60 61 62 62 60
33 34 34 35 34 34 35 37 38 37 39 42 42 43 45 47 46 48 50 53 55 55 53 54 55 57 59 61 62 64 65 66 66
35 35 35 35 35 35 36 36 37 36 35 38 40 41 44 46 49 45 45 51 55 59 62 62 59 58 59 61 65 65 68 71 70
36 36 35 35 35 36 35 34 34 37 35 35 36 38 41 44 49 54 49 45 52 56 58 61 64 64 63 62 63 68 71 73 73
Wind_Direction
255 255 260 257 256 257 255 247 241 237 234 231 201 225 245 266 272 258 241 115 130 310 199 270 228 228 228 226 231 232 225 209 200
256 255 255 252 253 256 257 253 251 247 241 238 232 236 236 246 250 269 248 237 236 229 229 223 241 227 231 230 232 240 233 209 213
256 255 255 254 255 253 255 255 252 251 248 245 246 241 240 240 241 246 256 268 252 244 244 244 230 226 240 234 232 231 238 223 218
254 255 257 258 255 253 253 253 253 253 252 248 245 246 238 240 245 243 247 247 254 248 227 236 241 226 224 241 240 236 233 232 226
259 258 256 255 257 254 252 253 253 253 253 251 247 245 242 241 243 247 243 249 241 245 243 234 231 234 228 234 239 250 242 238 232
259 259 258 257 256 255 253 254 253 253 253 252 249 246 245 243 243 246 247 248 250 243 247 245 234 228 232 236 241 244 251 246 238
258 257 258 258 256 252 253 254 253 253 254 254 252 250 247 246 245 245 245 246 246 251 250 246 248 245 233 233 237 240 244 254 250
265 262 259 258 257 255 251 249 251 252 254 253 254 253 251 248 246 245 244 247 249 249 249 248 247 247 244 238 232 235 241 233 246
266 266 266 264 261 258 258 256 252 251 251 253 253 254 253 252 251 248 245 244 245 248 249 249 245 245 246 243 237 235 233 238 246
267 268 268 266 264 265 265 263 263 262 258 253 251 252 254 254 253 252 250 247 245 244 245 247 248 245 244 244 244 237 233 229 237
261 262 262 263 265 267 267 267 267 265 264 262 260 258 255 254 254 254 252 249 248 247 244 244 244 244 243 243 240 242 235 232 232
249 250 254 258 262 266 266 267 266 263 262 262 263 261 260 258 256 254 254 254 251 247 246 245 244 242 242 240 240 237 238 230 227
255 259 261 262 264 265 266 267 267 267 265 263 260 259 259 258 257 257 255 253 252 252 249 247 245 244 243 241 240 239 236 235 229
257 260 262 264 263 262 261 262 262 263 264 264 264 263 261 258 258 255 254 254 254 252 250 248 247 245 244 241 239 240 239 235 233
265 270 273 272 269 266 264 262 262 261 261 261 263 262 261 260 258 258 256 255 252 251 251 250 247 246 244 243 241 238 238 236 238
277 278 278 277 275 272 270 269 268 267 265 263 260 260 260 261 261 259 258 256 253 252 250 249 249 247 245 243 242 242 238 236 233
280 280 278 277 275 274 272 270 269 268 266 264 264 262 261 261 261 262 262 260 256 254 251 249 246 245 246 244 241 241 240 238 236
283 282 279 277 275 272 270 268 266 264 265 266 265 262 260 259 259 261 264 264 264 261 257 254 250 246 243 243 243 241 240 238 237
288 286 284 282 281 279 279 278 277 275 273 275 276 274 272 269 264 259 260 262 262 261 262 260 256 253 247 242 241 241 239 238 235
290 289 288 287 286 285 285 286 287 287 286 282 280 279 278 279 277 275 268 262 262 260 258 259 261 260 256 250 242 239 239 239 236